Time,TemperatureF,DewpointF,PressureIn,WindDirection,WindDirectionDegrees,WindSpeedMPH,WindSpeedGustMPH,Humidity,HourlyPrecipIn,Conditions,Clouds,dailyrainin,SoftwareType,DateUTC
2013-06-14 00:00:00,76.5,73.3,29.90,SW,219,0.0,0.0,90,0.00,,---,0.00,VWS V14.01,2013-06-14 04:00:00,
2013-06-14 00:01:00,76.5,73.3,29.90,SW,219,0.0,0.0,90,0.00,,---,0.00,VWS V14.01,2013-06-14 04:01:00,
2013-06-14 00:02:00,76.5,73.3,29.90,SW,219,0.0,0.0,90,0.00,,---,0.00,VWS V14.01,2013-06-14 04:02:00,
2013-06-14 00:03:00,76.5,73.3,29.91,SW,219,0.0,0.0,90,0.00,,---,0.00,VWS V14.01,2013-06-14 04:03:00,
2013-06-14 00:06:00,76.5,73.3,29.91,SW,219,0.0,0.0,90,0.00,,---,0.00,VWS V14.01,2013-06-14 04:06:00,
2013-06-14 00:11:00,76.3,73.5,29.91,SW,219,0.0,0.0,91,0.00,,---,0.00,VWS V14.01,2013-06-14 04:11:00,
2013-06-14 00:16:00,76.3,73.5,29.91,SW,219,0.0,0.0,91,0.00,,---,0.00,VWS V14.01,2013-06-14 04:16:00,
2013-06-14 00:21:00,76.3,73.8,29.91,SW,219,0.0,0.0,92,0.00,,---,0.00,VWS V14.01,2013-06-14 04:21:00,
2013-06-14 00:26:00,76.1,73.6,29.91,SW,219,0.0,0.0,92,0.00,,---,0.00,VWS V14.01,2013-06-14 04:26:00,
2013-06-14 00:31:00,76.1,73.9,29.91,SW,219,0.0,0.0,93,0.00,,---,0.00,VWS V14.01,2013-06-14 04:31:00,
2013-06-14 00:36:00,76.1,73.9,29.91,SW,219,0.0,0.0,93,0.00,,---,0.00,VWS V14.01,2013-06-14 04:36:00,
2013-06-14 00:41:00,76.1,74.2,29.91,SW,219,0.0,0.0,94,0.00,,---,0.00,VWS V14.01,2013-06-14 04:41:00,
2013-06-14 00:46:00,76.1,74.2,29.91,SW,219,0.0,0.0,94,0.00,,---,0.00,VWS V14.01,2013-06-14 04:46:00,
2013-06-14 00:51:00,76.0,74.2,29.91,SW,219,0.0,0.0,94,0.00,,---,0.00,VWS V14.01,2013-06-14 04:51:00,
2013-06-14 00:56:00,76.0,74.5,29.91,SW,219,0.0,0.0,95,0.00,,---,0.00,VWS V14.01,2013-06-14 04:56:00,
2013-06-14 01:01:00,76.0,74.5,29.91,SW,219,0.0,0.0,95,0.00,,---,0.00,VWS V14.01,2013-06-14 05:01:00,
2013-06-14 01:06:00,76.0,74.5,29.91,SW,219,0.0,0.0,95,0.00,,---,0.00,VWS V14.01,2013-06-14 05:06:00,
2013-06-14 01:11:00,75.8,74.3,29.91,SW,219,0.0,0.0,95,0.00,,---,0.00,VWS V14.01,2013-06-14 05:11:00,
2013-06-14 01:16:00,75.8,74.3,29.91,SW,219,0.0,0.0,95,0.00,,---,0.00,VWS V14.01,2013-06-14 05:16:00,
2013-06-14 01:21:00,75.8,74.3,29.90,SW,219,0.0,0.0,95,0.00,,---,0.00,VWS V14.01,2013-06-14 05:21:00,
2013-06-14 01:26:00,75.8,74.6,29.90,SW,219,0.0,0.0,96,0.00,,---,0.00,VWS V14.01,2013-06-14 05:26:00,
2013-06-14 01:31:00,75.8,74.6,29.90,SW,219,0.0,0.0,96,0.00,,---,0.00,VWS V14.01,2013-06-14 05:31:00,
2013-06-14 01:36:00,75.8,74.6,29.89,SW,219,0.0,0.0,96,0.00,,---,0.00,VWS V14.01,2013-06-14 05:36:00,
2013-06-14 01:41:00,75.8,74.6,29.89,SW,219,0.0,0.0,96,0.00,,---,0.00,VWS V14.01,2013-06-14 05:41:00,
2013-06-14 01:46:00,75.6,74.7,29.89,SW,219,0.0,0.0,97,0.00,,---,0.00,VWS V14.01,2013-06-14 05:46:00,
2013-06-14 01:52:00,75.6,74.7,29.89,SW,219,0.0,0.0,97,0.00,,---,0.00,VWS V14.01,2013-06-14 05:52:00,
2013-06-14 01:57:00,75.6,74.7,29.89,SW,219,0.0,0.0,97,0.00,,---,0.00,VWS V14.01,2013-06-14 05:57:00,
2013-06-14 02:02:00,75.4,74.5,29.89,SW,219,0.0,0.0,97,0.00,,---,0.00,VWS V14.01,2013-06-14 06:02:00,
2013-06-14 02:07:00,75.6,75.0,29.89,SW,219,0.0,0.0,98,0.00,,---,0.00,VWS V14.01,2013-06-14 06:07:00,
2013-06-14 02:12:00,75.6,75.0,29.89,SW,219,0.0,0.0,98,0.00,,---,0.00,VWS V14.01,2013-06-14 06:12:00,
2013-06-14 02:17:00,75.6,75.0,29.89,SW,219,0.0,0.0,98,0.00,,---,0.00,VWS V14.01,2013-06-14 06:17:00,
2013-06-14 02:22:00,75.6,75.0,29.89,SW,219,0.0,0.0,98,0.00,,---,0.00,VWS V14.01,2013-06-14 06:22:00,
2013-06-14 02:27:00,75.6,75.0,29.89,SW,219,0.0,0.0,98,0.00,,---,0.00,VWS V14.01,2013-06-14 06:27:00,
2013-06-14 02:32:00,75.6,75.0,29.89,SW,219,0.0,0.0,98,0.00,,---,0.00,VWS V14.01,2013-06-14 06:32:00,
2013-06-14 02:37:00,75.8,75.2,29.89,SW,219,0.0,0.0,98,0.00,,---,0.00,VWS V14.01,2013-06-14 06:37:00,
2013-06-14 02:42:00,75.8,75.5,29.89,SW,219,0.0,0.0,99,0.00,,---,0.00,VWS V14.01,2013-06-14 06:42:00,
2013-06-14 02:47:00,75.8,75.5,29.89,SW,219,0.0,0.0,99,0.00,,---,0.00,VWS V14.01,2013-06-14 06:47:00,
2013-06-14 02:52:00,75.6,75.3,29.89,SW,219,0.0,0.0,99,0.00,,---,0.00,VWS V14.01,2013-06-14 06:52:00,
2013-06-14 02:57:00,75.6,75.3,29.89,SW,219,0.0,0.0,99,0.00,,---,0.00,VWS V14.01,2013-06-14 06:57:00,
2013-06-14 03:02:00,75.6,75.3,29.88,SW,219,0.0,0.0,99,0.00,,---,0.00,VWS V14.01,2013-06-14 07:02:00,
2013-06-14 03:07:00,75.4,75.1,29.88,SW,219,0.0,0.0,99,0.00,,---,0.00,VWS V14.01,2013-06-14 07:07:00,
2013-06-14 03:12:00,75.4,75.1,29.88,SW,219,0.0,0.0,99,0.00,,---,0.00,VWS V14.01,2013-06-14 07:12:00,
2013-06-14 03:17:00,75.4,75.1,29.88,SW,219,0.0,0.0,99,0.00,,---,0.00,VWS V14.01,2013-06-14 07:17:00,
2013-06-14 03:22:00,75.3,75.0,29.88,SW,219,0.0,0.0,99,0.00,,---,0.00,VWS V14.01,2013-06-14 07:22:00,
2013-06-14 03:27:00,75.3,75.0,29.88,SW,219,0.0,0.0,99,0.00,,---,0.00,VWS V14.01,2013-06-14 07:27:00,
2013-06-14 03:32:00,75.1,74.8,29.87,SW,219,0.0,0.0,99,0.00,,---,0.00,VWS V14.01,2013-06-14 07:32:00,
2013-06-14 03:38:00,75.1,75.1,29.87,SW,219,0.0,0.0,100,0.00,,---,0.00,VWS V14.01,2013-06-14 07:38:00,
2013-06-14 03:43:00,75.1,75.1,29.87,SW,219,0.0,0.0,100,0.00,,---,0.00,VWS V14.01,2013-06-14 07:43:00,
2013-06-14 03:48:00,75.1,75.1,29.87,SW,219,0.0,0.0,100,0.00,,---,0.00,VWS V14.01,2013-06-14 07:48:00,
2013-06-14 03:53:00,75.1,75.1,29.87,SW,219,0.0,0.0,100,0.00,,---,0.00,VWS V14.01,2013-06-14 07:53:00,
2013-06-14 03:58:00,74.9,74.9,29.87,SW,219,0.0,0.0,100,0.00,,---,0.00,VWS V14.01,2013-06-14 07:58:00,
2013-06-14 04:03:00,74.9,74.9,29.86,SW,219,0.0,0.0,100,0.00,,---,0.00,VWS V14.01,2013-06-14 08:03:00,
2013-06-14 04:08:00,74.9,74.9,29.86,SW,219,0.0,0.0,100,0.00,,---,0.00,VWS V14.01,2013-06-14 08:08:00,
2013-06-14 04:13:00,74.9,74.9,29.86,SW,219,0.0,0.0,100,0.00,,---,0.00,VWS V14.01,2013-06-14 08:13:00,
2013-06-14 04:18:00,74.7,74.7,29.86,SW,219,0.0,0.0,100,0.00,,---,0.00,VWS V14.01,2013-06-14 08:18:00,
2013-06-14 04:23:00,74.7,74.7,29.86,SW,219,0.0,0.0,100,0.00,,---,0.00,VWS V14.01,2013-06-14 08:23:00,
2013-06-14 04:28:00,74.7,74.7,29.86,SW,219,0.0,0.0,100,0.00,,---,0.00,VWS V14.01,2013-06-14 08:28:00,
2013-06-14 04:33:00,74.7,74.7,29.86,SW,219,0.0,0.0,100,0.00,,---,0.00,VWS V14.01,2013-06-14 08:33:00,
2013-06-14 04:38:00,74.7,74.7,29.86,SW,219,0.0,0.0,100,0.00,,---,0.00,VWS V14.01,2013-06-14 08:38:00,
2013-06-14 04:43:00,74.7,74.7,29.86,SW,219,0.0,0.0,100,0.00,,---,0.00,VWS V14.01,2013-06-14 08:43:00,
2013-06-14 04:48:00,74.7,74.7,29.85,SW,219,0.0,0.0,100,0.00,,---,0.00,VWS V14.01,2013-06-14 08:48:00,
2013-06-14 04:53:00,74.7,74.7,29.85,SW,219,0.0,0.0,100,0.00,,---,0.00,VWS V14.01,2013-06-14 08:53:00,
2013-06-14 04:58:00,74.7,74.7,29.85,SW,219,0.0,0.0,100,0.00,,---,0.00,VWS V14.01,2013-06-14 08:58:00,
2013-06-14 05:03:00,74.6,74.6,29.85,SW,219,0.0,0.0,100,0.00,,---,0.00,VWS V14.01,2013-06-14 09:03:00,
2013-06-14 05:08:00,74.6,74.6,29.85,SW,219,0.0,0.0,100,0.00,,---,0.00,VWS V14.01,2013-06-14 09:08:00,
2013-06-14 05:13:00,74.4,74.4,29.85,SW,219,0.0,0.0,100,0.00,,---,0.00,VWS V14.01,2013-06-14 09:13:00,
2013-06-14 05:18:00,74.6,74.6,29.84,SW,219,0.0,0.0,100,0.00,,---,0.00,VWS V14.01,2013-06-14 09:18:00,
2013-06-14 05:23:00,74.4,74.4,29.84,SW,219,0.0,0.0,100,0.00,,---,0.00,VWS V14.01,2013-06-14 09:23:00,
2013-06-14 05:29:00,74.4,74.4,29.84,SW,219,0.0,0.0,100,0.00,,---,0.00,VWS V14.01,2013-06-14 09:29:00,
2013-06-14 05:34:00,74.2,74.2,29.85,SW,219,0.0,0.0,100,0.00,,---,0.00,VWS V14.01,2013-06-14 09:34:00,
2013-06-14 05:39:00,74.2,74.2,29.85,SW,219,0.0,0.0,100,0.00,,---,0.00,VWS V14.01,2013-06-14 09:39:00,
2013-06-14 05:44:00,74.0,74.0,29.85,SW,219,0.0,0.0,100,0.00,,---,0.00,VWS V14.01,2013-06-14 09:44:00,
2013-06-14 05:49:00,74.0,74.0,29.84,SW,219,0.0,0.0,100,0.00,,---,0.00,VWS V14.01,2013-06-14 09:49:00,
2013-06-14 05:54:00,74.0,74.0,29.84,SW,219,0.0,0.0,100,0.00,,---,0.00,VWS V14.01,2013-06-14 09:54:00,
2013-06-14 05:59:00,74.0,74.0,29.84,SW,219,0.0,0.0,100,0.00,,---,0.00,VWS V14.01,2013-06-14 09:59:00,
2013-06-14 06:04:00,73.9,73.9,29.84,SW,219,0.0,0.0,100,0.00,,---,0.00,VWS V14.01,2013-06-14 10:04:00,
2013-06-14 06:09:00,73.9,73.9,29.84,SW,219,0.0,0.0,100,0.00,,---,0.00,VWS V14.01,2013-06-14 10:09:00,
2013-06-14 06:14:00,73.9,73.9,29.84,SW,219,0.0,0.0,100,0.00,,---,0.00,VWS V14.01,2013-06-14 10:14:00,
2013-06-14 06:19:00,73.7,73.7,29.85,SW,219,0.0,0.0,100,0.00,,---,0.00,VWS V14.01,2013-06-14 10:19:00,
2013-06-14 06:24:00,73.7,73.7,29.85,SW,219,0.0,0.0,100,0.00,,---,0.00,VWS V14.01,2013-06-14 10:24:00,
2013-06-14 06:29:00,73.7,73.7,29.85,SW,219,0.0,0.0,100,0.00,,---,0.00,VWS V14.01,2013-06-14 10:29:00,
2013-06-14 06:34:00,73.5,73.5,29.85,SW,219,0.0,0.0,100,0.00,,---,0.00,VWS V14.01,2013-06-14 10:34:00,
2013-06-14 06:39:00,73.5,73.5,29.85,SW,219,0.0,0.0,100,0.00,,---,0.00,VWS V14.01,2013-06-14 10:39:00,
2013-06-14 06:44:00,73.5,73.5,29.85,SW,219,0.0,0.0,100,0.00,,---,0.00,VWS V14.01,2013-06-14 10:44:00,
2013-06-14 06:49:00,73.5,73.5,29.86,SW,219,0.0,0.0,100,0.00,,---,0.00,VWS V14.01,2013-06-14 10:49:00,
2013-06-14 06:54:00,73.5,73.5,29.86,SW,219,0.0,0.0,100,0.00,,---,0.00,VWS V14.01,2013-06-14 10:54:00,
2013-06-14 06:59:00,73.5,73.5,29.86,SW,219,0.0,0.0,100,0.00,,---,0.00,VWS V14.01,2013-06-14 10:59:00,
2013-06-14 07:04:00,73.5,73.5,29.86,SW,219,0.0,0.0,100,0.00,,---,0.00,VWS V14.01,2013-06-14 11:04:00,
2013-06-14 07:09:00,73.9,73.9,29.86,SW,219,0.0,0.0,100,0.00,,---,0.00,VWS V14.01,2013-06-14 11:09:00,
2013-06-14 07:14:00,74.0,74.0,29.86,SW,219,0.0,0.0,100,0.00,,---,0.00,VWS V14.01,2013-06-14 11:14:00,
2013-06-14 07:20:00,74.2,74.2,29.86,SW,219,0.0,0.0,100,0.00,,---,0.00,VWS V14.01,2013-06-14 11:20:00,
2013-06-14 07:25:00,74.4,74.4,29.86,SW,219,2.0,2.0,100,0.00,,---,0.00,VWS V14.01,2013-06-14 11:25:00,
2013-06-14 07:30:00,74.7,74.7,29.86,SW,219,0.0,2.0,100,0.00,,---,0.00,VWS V14.01,2013-06-14 11:30:00,
2013-06-14 07:35:00,75.1,75.1,29.86,SW,219,0.0,0.0,100,0.00,,---,0.00,VWS V14.01,2013-06-14 11:35:00,
2013-06-14 07:40:00,75.4,75.4,29.86,SW,219,0.0,0.0,100,0.00,,---,0.00,VWS V14.01,2013-06-14 11:40:00,
2013-06-14 07:45:00,75.8,75.8,29.86,SW,219,0.0,0.0,100,0.00,,---,0.00,VWS V14.01,2013-06-14 11:45:00,
2013-06-14 07:50:00,76.1,76.1,29.86,SW,219,0.0,1.0,100,0.00,,---,0.00,VWS V14.01,2013-06-14 11:50:00,
2013-06-14 07:55:00,76.5,76.5,29.86,SW,219,1.0,3.0,100,0.00,,---,0.00,VWS V14.01,2013-06-14 11:55:00,
2013-06-14 08:00:00,76.8,76.8,29.86,SW,219,2.0,3.0,100,0.00,,---,0.00,VWS V14.01,2013-06-14 12:00:00,
2013-06-14 08:05:00,77.2,77.2,29.86,SW,219,1.0,4.0,100,0.00,,---,0.00,VWS V14.01,2013-06-14 12:05:00,
2013-06-14 08:10:00,77.7,77.7,29.86,SW,219,2.0,4.0,100,0.00,,---,0.00,VWS V14.01,2013-06-14 12:10:00,
2013-06-14 08:15:00,78.1,77.8,29.86,SW,219,2.0,4.0,99,0.00,,---,0.00,VWS V14.01,2013-06-14 12:15:00,
2013-06-14 08:20:00,78.6,77.7,29.86,SW,219,1.0,4.0,97,0.00,,---,0.00,VWS V14.01,2013-06-14 12:20:00,
2013-06-14 08:25:00,79.0,77.8,29.86,SW,219,2.0,4.0,96,0.00,,---,0.00,VWS V14.01,2013-06-14 12:25:00,
2013-06-14 08:30:00,79.6,78.1,29.86,SW,219,2.0,4.0,95,0.00,,---,0.00,VWS V14.01,2013-06-14 12:30:00,
2013-06-14 08:35:00,79.9,77.7,29.87,SW,219,3.0,3.0,93,0.00,,---,0.00,VWS V14.01,2013-06-14 12:35:00,
2013-06-14 08:40:00,80.1,77.2,29.87,SW,219,0.0,3.0,91,0.00,,---,0.00,VWS V14.01,2013-06-14 12:40:00,
2013-06-14 08:45:00,80.7,77.5,29.87,SW,219,2.0,4.0,90,0.00,,---,0.00,VWS V14.01,2013-06-14 12:45:00,
2013-06-14 08:50:00,81.1,77.2,29.88,SW,219,2.0,4.0,88,0.00,,---,0.00,VWS V14.01,2013-06-14 12:50:00,
2013-06-14 08:56:00,81.4,76.8,29.88,SW,219,4.0,4.0,86,0.00,,---,0.00,VWS V14.01,2013-06-14 12:56:00,
2013-06-14 09:01:00,81.8,76.8,29.88,SW,222,1.0,6.0,85,0.00,,---,0.00,VWS V14.01,2013-06-14 13:01:00,
2013-06-14 09:06:00,82.2,76.9,29.88,SW,222,2.0,2.0,84,0.00,,---,0.00,VWS V14.01,2013-06-14 13:06:00,
2013-06-14 09:11:00,82.6,76.9,29.88,SW,222,2.0,5.0,83,0.00,,---,0.00,VWS V14.01,2013-06-14 13:11:00,
2013-06-14 09:16:00,83.0,77.3,29.88,SW,222,4.0,5.0,83,0.00,,---,0.00,VWS V14.01,2013-06-14 13:16:00,
2013-06-14 09:21:00,83.2,77.1,29.88,SW,223,3.0,5.0,82,0.00,,---,0.00,VWS V14.01,2013-06-14 13:21:00,
2013-06-14 09:26:00,83.6,77.2,29.88,SW,223,0.0,5.0,81,0.00,,---,0.00,VWS V14.01,2013-06-14 13:26:00,
2013-06-14 09:31:00,84.0,77.5,29.88,SW,223,2.0,5.0,81,0.00,,---,0.00,VWS V14.01,2013-06-14 13:31:00,
2013-06-14 09:36:00,84.1,76.9,29.88,SW,223,1.0,5.0,79,0.00,,---,0.00,VWS V14.01,2013-06-14 13:36:00,
2013-06-14 09:41:00,84.3,77.1,29.88,SW,223,0.0,5.0,79,0.00,,---,0.00,VWS V14.01,2013-06-14 13:41:00,
2013-06-14 09:46:00,84.3,76.7,29.88,SW,219,2.0,5.0,78,0.00,,---,0.00,VWS V14.01,2013-06-14 13:46:00,
2013-06-14 09:51:00,84.3,76.7,29.88,SW,219,2.0,5.0,78,0.00,,---,0.00,VWS V14.01,2013-06-14 13:51:00,
2013-06-14 09:56:00,84.1,76.9,29.88,SW,219,3.0,5.0,79,0.00,,---,0.00,VWS V14.01,2013-06-14 13:56:00,
2013-06-14 10:01:00,84.0,76.4,29.88,SW,225,2.0,7.0,78,0.00,,---,0.00,VWS V14.01,2013-06-14 14:01:00,
2013-06-14 10:06:00,83.8,76.6,29.88,SW,225,3.0,5.0,79,0.00,,---,0.00,VWS V14.01,2013-06-14 14:06:00,
2013-06-14 10:11:00,83.8,76.6,29.88,WSW,239,5.0,7.0,79,0.00,,---,0.00,VWS V14.01,2013-06-14 14:11:00,
2013-06-14 10:16:00,84.3,76.7,29.88,WSW,242,4.0,7.0,78,0.00,,---,0.00,VWS V14.01,2013-06-14 14:16:00,
2013-06-14 10:21:00,84.5,76.1,29.88,WSW,242,4.0,7.0,76,0.00,,---,0.00,VWS V14.01,2013-06-14 14:21:00,
2013-06-14 10:26:00,84.7,76.3,29.88,WSW,242,2.0,7.0,76,0.00,,---,0.00,VWS V14.01,2013-06-14 14:26:00,
2013-06-14 10:31:00,85.1,75.9,29.88,WSW,254,4.0,8.0,74,0.00,,---,0.00,VWS V14.01,2013-06-14 14:31:00,
2013-06-14 10:36:00,85.5,75.4,29.89,West,259,3.0,7.0,72,0.00,,---,0.00,VWS V14.01,2013-06-14 14:36:00,
2013-06-14 10:42:00,85.7,76.1,29.89,WSW,254,4.0,7.0,73,0.00,,---,0.00,VWS V14.01,2013-06-14 14:42:00,
2013-06-14 10:47:00,86.1,76.0,29.89,WSW,255,2.0,7.0,72,0.00,,---,0.00,VWS V14.01,2013-06-14 14:47:00,
2013-06-14 10:52:00,86.3,75.8,29.88,WSW,252,3.0,7.0,71,0.00,,---,0.00,VWS V14.01,2013-06-14 14:52:00,
2013-06-14 10:57:00,86.7,75.8,29.88,WSW,253,4.0,7.0,70,0.00,,---,0.00,VWS V14.01,2013-06-14 14:57:00,
2013-06-14 11:02:00,87.2,75.8,29.88,WSW,255,2.0,7.0,69,0.00,,---,0.00,VWS V14.01,2013-06-14 15:02:00,
2013-06-14 11:07:00,87.2,75.4,29.88,WSW,255,4.0,6.0,68,0.00,,---,0.00,VWS V14.01,2013-06-14 15:07:00,
2013-06-14 11:12:00,87.6,75.3,29.88,WSW,255,3.0,6.0,67,0.00,,---,0.00,VWS V14.01,2013-06-14 15:12:00,
2013-06-14 11:17:00,87.2,74.9,29.88,West,259,6.0,8.0,67,0.00,,---,0.00,VWS V14.01,2013-06-14 15:17:00,
2013-06-14 11:22:00,87.0,74.7,29.89,West,260,3.0,8.0,67,0.00,,---,0.00,VWS V14.01,2013-06-14 15:22:00,
2013-06-14 11:27:00,87.2,74.9,29.89,West,262,6.0,8.0,67,0.00,,---,0.00,VWS V14.01,2013-06-14 15:27:00,
2013-06-14 11:32:00,86.7,74.4,29.89,West,262,4.0,8.0,67,0.00,,---,0.00,VWS V14.01,2013-06-14 15:32:00,
2013-06-14 11:37:00,86.7,74.9,29.89,West,263,2.0,4.0,68,0.00,,---,0.00,VWS V14.01,2013-06-14 15:37:00,
2013-06-14 11:42:00,87.6,75.7,29.89,West,264,2.0,6.0,68,0.00,,---,0.00,VWS V14.01,2013-06-14 15:42:00,
2013-06-14 11:47:00,88.0,75.2,29.89,West,264,7.0,7.0,66,0.00,,---,0.00,VWS V14.01,2013-06-14 15:47:00,
2013-06-14 11:52:00,88.6,75.8,29.89,West,263,2.0,7.0,66,0.00,,---,0.00,VWS V14.01,2013-06-14 15:52:00,
2013-06-14 11:57:00,89.0,75.2,29.89,West,278,3.0,9.0,64,0.00,,---,0.00,VWS V14.01,2013-06-14 15:57:00,
2013-06-14 12:02:00,89.5,75.7,29.88,West,272,2.0,9.0,64,0.00,,---,0.00,VWS V14.01,2013-06-14 16:02:00,
2013-06-14 12:07:00,89.9,75.6,29.88,West,273,2.0,5.0,63,0.00,,---,0.00,VWS V14.01,2013-06-14 16:07:00,
2013-06-14 12:12:00,89.7,74.5,29.88,WNW,284,5.0,6.0,61,0.00,,---,0.00,VWS V14.01,2013-06-14 16:12:00,
2013-06-14 12:17:00,89.9,75.1,29.88,WNW,286,4.0,8.0,62,0.00,,---,0.00,VWS V14.01,2013-06-14 16:17:00,
2013-06-14 12:22:00,89.9,75.1,29.88,West,274,7.0,8.0,62,0.00,,---,0.00,VWS V14.01,2013-06-14 16:22:00,
2013-06-14 12:27:00,89.9,74.7,29.88,WNW,286,2.0,9.0,61,0.00,,---,0.00,VWS V14.01,2013-06-14 16:27:00,
2013-06-14 12:33:00,90.1,74.8,29.88,West,281,3.0,9.0,61,0.00,,---,0.00,VWS V14.01,2013-06-14 16:33:00,
2013-06-14 12:38:00,90.5,75.2,29.88,West,269,6.0,9.0,61,0.00,,---,0.00,VWS V14.01,2013-06-14 16:38:00,
2013-06-14 12:43:00,90.7,74.9,29.88,West,269,5.0,9.0,60,0.00,,---,0.00,VWS V14.01,2013-06-14 16:43:00,
2013-06-14 12:48:00,91.2,74.9,29.88,West,272,1.0,9.0,59,0.00,,---,0.00,VWS V14.01,2013-06-14 16:48:00,
2013-06-14 12:53:00,91.2,75.4,29.88,West,273,6.0,9.0,60,0.00,,---,0.00,VWS V14.01,2013-06-14 16:53:00,
2013-06-14 12:58:00,91.2,75.4,29.88,WNW,283,4.0,9.0,60,0.00,,---,0.00,VWS V14.01,2013-06-14 16:58:00,
2013-06-14 13:03:00,91.0,74.7,29.88,West,277,6.0,10.0,59,0.00,,---,0.00,VWS V14.01,2013-06-14 17:03:00,
2013-06-14 13:08:00,90.7,74.4,29.88,West,277,1.0,9.0,59,0.00,,---,0.00,VWS V14.01,2013-06-14 17:08:00,
2013-06-14 13:13:00,91.0,74.7,29.88,West,275,6.0,9.0,59,0.00,,---,0.00,VWS V14.01,2013-06-14 17:13:00,
2013-06-14 13:18:00,91.4,75.1,29.86,West,268,5.0,9.0,59,0.00,,---,0.00,VWS V14.01,2013-06-14 17:18:00,
2013-06-14 13:23:00,91.4,74.6,29.86,West,281,5.0,9.0,58,0.00,,---,0.00,VWS V14.01,2013-06-14 17:23:00,
2013-06-14 13:28:00,91.6,74.7,29.86,West,279,9.0,9.0,58,0.00,,---,0.00,VWS V14.01,2013-06-14 17:28:00,
2013-06-14 13:33:00,92.1,74.7,29.86,WNW,282,5.0,9.0,57,0.00,,---,0.00,VWS V14.01,2013-06-14 17:33:00,
2013-06-14 13:38:00,92.1,74.7,29.86,West,274,1.0,7.0,57,0.00,,---,0.00,VWS V14.01,2013-06-14 17:38:00,
2013-06-14 13:43:00,92.3,73.8,29.86,WNW,300,2.0,11.0,55,0.00,,---,0.00,VWS V14.01,2013-06-14 17:43:00,
2013-06-14 13:48:00,92.5,76.1,29.86,WNW,286,5.0,11.0,59,0.00,,---,0.00,VWS V14.01,2013-06-14 17:48:00,
2013-06-14 13:53:00,92.7,74.7,29.86,West,273,0.0,11.0,56,0.00,,---,0.00,VWS V14.01,2013-06-14 17:53:00,
2013-06-14 13:58:00,93.4,74.8,29.86,West,274,3.0,11.0,55,0.00,,---,0.00,VWS V14.01,2013-06-14 17:58:00,
2013-06-14 14:04:00,93.4,74.3,29.86,West,275,5.0,5.0,54,0.00,,---,0.00,VWS V14.01,2013-06-14 18:04:00,
2013-06-14 14:09:00,93.4,74.8,29.86,West,277,2.0,5.0,55,0.00,,---,0.00,VWS V14.01,2013-06-14 18:09:00,
2013-06-14 14:14:00,93.8,75.7,29.86,WNW,298,4.0,6.0,56,0.00,,---,0.00,VWS V14.01,2013-06-14 18:14:00,
2013-06-14 14:19:00,94.3,75.1,29.85,WNW,298,3.0,6.0,54,0.00,,---,0.00,VWS V14.01,2013-06-14 18:19:00,
2013-06-14 14:24:00,94.0,73.7,29.85,West,281,8.0,8.0,52,0.00,,---,0.00,VWS V14.01,2013-06-14 18:24:00,
2013-06-14 14:29:00,93.8,73.5,29.85,West,281,4.0,8.0,52,0.00,,---,0.00,VWS V14.01,2013-06-14 18:29:00,
2013-06-14 14:34:00,93.6,73.9,29.84,West,272,3.0,6.0,53,0.00,,---,0.00,VWS V14.01,2013-06-14 18:34:00,
2013-06-14 14:39:00,93.2,74.6,29.84,West,261,7.0,7.0,55,0.00,,---,0.00,VWS V14.01,2013-06-14 18:39:00,
2013-06-14 14:44:00,93.6,74.5,29.84,West,261,2.0,7.0,54,0.00,,---,0.00,VWS V14.01,2013-06-14 18:44:00,
2013-06-14 14:49:00,93.8,73.5,29.83,West,275,2.0,7.0,52,0.00,,---,0.00,VWS V14.01,2013-06-14 18:49:00,
2013-06-14 14:54:00,93.8,73.5,29.83,West,276,4.0,7.0,52,0.00,,---,0.00,VWS V14.01,2013-06-14 18:54:00,
2013-06-14 14:59:00,94.0,73.7,29.83,West,276,3.0,7.0,52,0.00,,---,0.00,VWS V14.01,2013-06-14 18:59:00,
2013-06-14 15:04:00,94.3,74.0,29.83,West,277,4.0,4.0,52,0.00,,---,0.00,VWS V14.01,2013-06-14 19:04:00,
2013-06-14 15:09:00,94.5,74.2,29.83,West,266,3.0,9.0,52,0.00,,---,0.00,VWS V14.01,2013-06-14 19:09:00,
2013-06-14 15:14:00,94.7,73.2,29.83,West,270,6.0,9.0,50,0.00,,---,0.00,VWS V14.01,2013-06-14 19:14:00,
2013-06-14 15:19:00,94.5,74.2,29.83,West,269,4.0,9.0,52,0.00,,---,0.00,VWS V14.01,2013-06-14 19:19:00,
2013-06-14 15:24:00,94.0,72.5,29.83,West,259,4.0,9.0,50,0.00,,---,0.00,VWS V14.01,2013-06-14 19:24:00,
2013-06-14 15:29:00,93.4,74.8,29.83,West,263,3.0,9.0,55,0.00,,---,0.00,VWS V14.01,2013-06-14 19:29:00,
2013-06-14 15:35:00,93.2,74.1,29.83,West,266,4.0,6.0,54,0.00,,---,0.00,VWS V14.01,2013-06-14 19:35:00,
2013-06-14 15:40:00,92.7,73.6,29.83,West,266,3.0,6.0,54,0.00,,---,0.00,VWS V14.01,2013-06-14 19:40:00,
2013-06-14 15:45:00,92.1,74.2,29.83,West,266,2.0,6.0,56,0.00,,---,0.00,VWS V14.01,2013-06-14 19:45:00,
2013-06-14 15:50:00,91.8,74.4,29.82,West,266,3.0,6.0,57,0.00,,---,0.00,VWS V14.01,2013-06-14 19:50:00,
2013-06-14 15:55:00,91.6,75.2,29.82,West,266,0.0,6.0,59,0.00,,---,0.00,VWS V14.01,2013-06-14 19:55:00,
2013-06-14 16:00:00,92.3,74.9,29.82,West,266,5.0,6.0,57,0.00,,---,0.00,VWS V14.01,2013-06-14 20:00:00,
2013-06-14 16:05:00,92.9,73.8,29.82,West,265,1.0,1.0,54,0.00,,---,0.00,VWS V14.01,2013-06-14 20:05:00,
2013-06-14 16:10:00,92.7,73.1,29.82,West,265,1.0,5.0,53,0.00,,---,0.00,VWS V14.01,2013-06-14 20:10:00,
2013-06-14 16:15:00,92.5,74.0,29.82,West,265,1.0,5.0,55,0.00,,---,0.00,VWS V14.01,2013-06-14 20:15:00,
2013-06-14 16:20:00,92.5,74.0,29.82,West,267,4.0,6.0,55,0.00,,---,0.00,VWS V14.01,2013-06-14 20:20:00,
2013-06-14 16:25:00,92.7,73.6,29.82,West,271,0.0,7.0,54,0.00,,---,0.00,VWS V14.01,2013-06-14 20:25:00,
2013-06-14 16:30:00,92.3,72.7,29.82,West,271,4.0,7.0,53,0.00,,---,0.00,VWS V14.01,2013-06-14 20:30:00,
2013-06-14 16:35:00,92.5,74.5,29.82,West,271,0.0,1.0,56,0.00,,---,0.00,VWS V14.01,2013-06-14 20:35:00,
2013-06-14 16:40:00,92.7,73.6,29.82,West,270,3.0,4.0,54,0.00,,---,0.00,VWS V14.01,2013-06-14 20:40:00,
2013-06-14 16:45:00,92.7,74.2,29.82,West,268,2.0,5.0,55,0.00,,---,0.00,VWS V14.01,2013-06-14 20:45:00,
2013-06-14 16:50:00,92.3,73.3,29.82,West,267,3.0,5.0,54,0.00,,---,0.00,VWS V14.01,2013-06-14 20:50:00,
2013-06-14 16:56:00,92.1,73.1,29.82,West,267,1.0,5.0,54,0.00,,---,0.00,VWS V14.01,2013-06-14 20:56:00,
2013-06-14 17:01:00,91.6,74.2,29.82,WNW,286,1.0,5.0,57,0.00,,---,0.00,VWS V14.01,2013-06-14 21:01:00,
2013-06-14 17:06:00,90.5,75.2,29.83,East,83,3.0,4.0,61,0.00,,---,0.00,VWS V14.01,2013-06-14 21:06:00,
2013-06-14 17:11:00,89.0,75.7,29.83,East,98,5.0,7.0,65,0.00,,---,0.00,VWS V14.01,2013-06-14 21:11:00,
2013-06-14 17:16:00,87.6,76.2,29.83,ESE,111,7.0,7.0,69,0.00,,---,0.00,VWS V14.01,2013-06-14 21:16:00,
2013-06-14 17:21:00,86.7,76.2,29.82,ESE,111,4.0,7.0,71,0.00,,---,0.00,VWS V14.01,2013-06-14 21:21:00,
2013-06-14 17:26:00,86.1,76.4,29.82,SSW,194,8.0,8.0,73,0.00,,---,0.00,VWS V14.01,2013-06-14 21:26:00,
2013-06-14 17:31:00,84.9,75.3,29.82,WNW,291,4.0,12.0,73,0.01,,---,0.01,VWS V14.01,2013-06-14 21:31:00,
2013-06-14 17:37:00,83.4,75.1,29.83,NNW,331,11.0,11.0,76,0.10,,---,0.10,VWS V14.01,2013-06-14 21:37:00,
2013-06-14 17:42:00,81.1,75.1,29.83,NNW,338,5.0,12.0,82,0.23,,---,0.23,VWS V14.01,2013-06-14 21:42:00,
2013-06-14 17:47:00,79.2,74.7,29.85,NNW,340,0.0,12.0,86,0.31,,---,0.31,VWS V14.01,2013-06-14 21:47:00,
2013-06-14 17:52:00,78.5,74.7,29.85,NNW,340,0.0,12.0,88,0.35,,---,0.35,VWS V14.01,2013-06-14 21:52:00,
2013-06-14 17:57:00,77.7,74.5,29.85,NNW,340,0.0,12.0,90,0.36,,---,0.36,VWS V14.01,2013-06-14 21:57:00,
2013-06-14 18:03:00,77.6,75.1,29.83,NNW,340,2.0,12.0,92,0.36,,---,0.36,VWS V14.01,2013-06-14 22:03:00,
2013-06-14 18:08:00,77.4,75.2,29.83,NNW,346,2.0,3.0,93,0.36,,---,0.36,VWS V14.01,2013-06-14 22:08:00,
2013-06-14 18:13:00,77.4,75.5,29.83,NNW,346,0.0,3.0,94,0.36,,---,0.36,VWS V14.01,2013-06-14 22:13:00,
2013-06-14 18:18:00,77.6,76.1,29.83,NNW,348,2.0,3.0,95,0.36,,---,0.36,VWS V14.01,2013-06-14 22:18:00,
2013-06-14 18:24:00,77.6,76.4,29.83,NNW,348,0.0,3.0,96,0.36,,---,0.36,VWS V14.01,2013-06-14 22:24:00,
2013-06-14 18:29:00,77.7,76.2,29.83,NNW,348,0.0,4.0,95,0.36,,---,0.36,VWS V14.01,2013-06-14 22:29:00,
2013-06-14 18:34:00,77.9,76.4,29.84,NNW,346,0.0,0.0,95,0.30,,---,0.36,VWS V14.01,2013-06-14 22:34:00,
2013-06-14 18:39:00,77.9,76.7,29.84,NNW,346,3.0,3.0,96,0.30,,---,0.36,VWS V14.01,2013-06-14 22:39:00,
2013-06-14 18:44:00,77.9,76.0,29.84,WSW,241,11.0,11.0,94,0.30,,---,0.36,VWS V14.01,2013-06-14 22:44:00,
2013-06-14 18:49:00,77.2,74.0,29.86,SW,218,4.0,11.0,90,0.30,,---,0.36,VWS V14.01,2013-06-14 22:49:00,
2013-06-14 18:54:00,76.7,73.6,29.86,West,266,4.0,11.0,90,0.30,,---,0.36,VWS V14.01,2013-06-14 22:54:00,
2013-06-14 18:59:00,76.1,73.0,29.86,West,259,13.0,18.0,90,0.31,,---,0.37,VWS V14.01,2013-06-14 22:59:00,
2013-06-14 19:04:00,75.4,72.3,29.85,SW,234,6.0,11.0,90,0.03,,---,0.39,VWS V14.01,2013-06-14 23:04:00,
2013-06-14 19:10:00,75.1,72.3,29.85,SW,233,4.0,13.0,91,0.03,,---,0.39,VWS V14.01,2013-06-14 23:10:00,
2013-06-14 19:15:00,74.9,72.1,29.85,WSW,241,5.0,13.0,91,0.03,,---,0.39,VWS V14.01,2013-06-14 23:15:00,
2013-06-14 19:20:00,75.1,72.3,29.85,WSW,250,6.0,13.0,91,0.03,,---,0.39,VWS V14.01,2013-06-14 23:20:00,
2013-06-14 19:25:00,75.3,72.2,29.85,WSW,257,2.0,13.0,90,0.03,,---,0.39,VWS V14.01,2013-06-14 23:25:00,
2013-06-14 19:30:00,75.4,72.3,29.85,WSW,255,0.0,13.0,90,0.03,,---,0.39,VWS V14.01,2013-06-14 23:30:00,
2013-06-14 19:35:00,75.4,72.6,29.86,WSW,250,5.0,5.0,91,0.03,,---,0.39,VWS V14.01,2013-06-14 23:35:00,
2013-06-14 19:40:00,75.8,73.3,29.86,WSW,242,1.0,5.0,92,0.03,,---,0.39,VWS V14.01,2013-06-14 23:40:00,
2013-06-14 19:45:00,76.0,73.5,29.86,WSW,249,5.0,6.0,92,0.03,,---,0.39,VWS V14.01,2013-06-14 23:45:00,
2013-06-14 19:50:00,76.7,73.6,29.86,West,266,4.0,8.0,90,0.04,,---,0.40,VWS V14.01,2013-06-14 23:50:00,
2013-06-14 19:55:00,76.8,73.7,29.86,West,265,2.0,8.0,90,0.04,,---,0.40,VWS V14.01,2013-06-14 23:55:00,
2013-06-14 20:00:00,76.8,74.0,29.86,West,265,0.0,8.0,91,0.04,,---,0.40,VWS V14.01,2013-06-15 00:00:00,
2013-06-14 20:05:00,76.8,74.3,29.86,West,265,0.0,0.0,92,0.01,,---,0.40,VWS V14.01,2013-06-15 00:05:00,
2013-06-14 20:10:00,76.8,74.6,29.86,SSW,195,3.0,3.0,93,0.01,,---,0.40,VWS V14.01,2013-06-15 00:10:00,
2013-06-14 20:15:00,76.7,74.8,29.86,SE,143,2.0,5.0,94,0.01,,---,0.40,VWS V14.01,2013-06-15 00:15:00,
2013-06-14 20:20:00,76.5,74.3,29.88,SE,143,2.0,5.0,93,0.01,,---,0.40,VWS V14.01,2013-06-15 00:20:00,
2013-06-14 20:25:00,76.3,74.1,29.88,SE,143,1.0,5.0,93,0.01,,---,0.40,VWS V14.01,2013-06-15 00:25:00,
2013-06-14 20:30:00,76.1,73.9,29.88,SE,139,0.0,5.0,93,0.01,,---,0.40,VWS V14.01,2013-06-15 00:30:00,
2013-06-14 20:35:00,76.1,74.2,29.87,SE,142,0.0,2.0,94,0.01,,---,0.40,VWS V14.01,2013-06-15 00:35:00,
2013-06-14 20:41:00,76.0,74.2,29.87,SE,142,2.0,2.0,94,0.01,,---,0.40,VWS V14.01,2013-06-15 00:41:00,
2013-06-14 20:46:00,76.0,74.2,29.87,SE,142,0.0,2.0,94,0.01,,---,0.40,VWS V14.01,2013-06-15 00:46:00,
2013-06-14 20:51:00,75.8,73.9,29.86,SE,142,0.0,2.0,94,0.01,,---,0.40,VWS V14.01,2013-06-15 00:51:00,
2013-06-14 20:56:00,75.8,73.9,29.86,SE,142,0.0,2.0,94,0.01,,---,0.40,VWS V14.01,2013-06-15 00:56:00,
2013-06-14 21:01:00,75.8,74.3,29.86,SE,142,0.0,2.0,95,0.01,,---,0.40,VWS V14.01,2013-06-15 01:01:00,
2013-06-14 21:06:00,75.6,74.1,29.86,SE,142,0.0,0.0,95,0.00,,---,0.40,VWS V14.01,2013-06-15 01:06:00,
2013-06-14 21:11:00,75.6,74.1,29.86,SE,142,0.0,2.0,95,0.00,,---,0.40,VWS V14.01,2013-06-15 01:11:00,
2013-06-14 21:16:00,75.6,74.1,29.86,SE,142,0.0,2.0,95,0.00,,---,0.40,VWS V14.01,2013-06-15 01:16:00,
2013-06-14 21:21:00,75.6,74.4,29.86,SE,142,0.0,2.0,96,0.00,,---,0.40,VWS V14.01,2013-06-15 01:21:00,
2013-06-14 21:26:00,75.6,74.4,29.86,SE,142,0.0,2.0,96,0.00,,---,0.40,VWS V14.01,2013-06-15 01:26:00,
2013-06-14 21:31:00,75.6,74.4,29.86,SE,142,0.0,2.0,96,0.00,,---,0.40,VWS V14.01,2013-06-15 01:31:00,
2013-06-14 21:36:00,75.6,74.7,29.86,SE,142,0.0,2.0,97,0.00,,---,0.40,VWS V14.01,2013-06-15 01:36:00,
2013-06-14 21:41:00,75.6,74.7,29.86,SE,142,0.0,2.0,97,0.00,,---,0.40,VWS V14.01,2013-06-15 01:41:00,
2013-06-14 21:46:00,75.8,75.2,29.86,SE,142,0.0,2.0,98,0.00,,---,0.40,VWS V14.01,2013-06-15 01:46:00,
2013-06-14 21:51:00,75.8,75.2,29.88,SE,142,0.0,2.0,98,0.00,,---,0.40,VWS V14.01,2013-06-15 01:51:00,
2013-06-14 21:56:00,75.8,75.2,29.88,SE,142,0.0,2.0,98,0.00,,---,0.40,VWS V14.01,2013-06-15 01:56:00,
2013-06-14 22:02:00,75.8,75.2,29.88,SE,142,0.0,2.0,98,0.00,,---,0.40,VWS V14.01,2013-06-15 02:02:00,
2013-06-14 22:07:00,75.8,75.2,29.89,SE,142,0.0,0.0,98,0.00,,---,0.40,VWS V14.01,2013-06-15 02:07:00,
2013-06-14 22:12:00,75.8,75.5,29.89,SE,142,0.0,0.0,99,0.00,,---,0.40,VWS V14.01,2013-06-15 02:12:00,
2013-06-14 22:17:00,75.8,75.5,29.89,SE,142,0.0,0.0,99,0.00,,---,0.40,VWS V14.01,2013-06-15 02:17:00,
2013-06-14 22:22:00,75.8,75.5,29.90,SE,142,0.0,0.0,99,0.00,,---,0.40,VWS V14.01,2013-06-15 02:22:00,
2013-06-14 22:27:00,75.8,75.5,29.90,SE,142,0.0,0.0,99,0.00,,---,0.40,VWS V14.01,2013-06-15 02:27:00,
2013-06-14 22:32:00,75.8,75.5,29.90,SE,142,0.0,0.0,99,0.00,,---,0.40,VWS V14.01,2013-06-15 02:32:00,
2013-06-14 22:37:00,75.8,75.8,29.89,SE,142,0.0,0.0,100,0.00,,---,0.40,VWS V14.01,2013-06-15 02:37:00,
2013-06-14 22:42:00,75.8,75.8,29.89,SE,142,0.0,0.0,100,0.00,,---,0.40,VWS V14.01,2013-06-15 02:42:00,
2013-06-14 22:47:00,75.8,75.8,29.89,SE,142,0.0,0.0,100,0.00,,---,0.40,VWS V14.01,2013-06-15 02:47:00,
2013-06-14 22:52:00,76.0,76.0,29.89,SE,142,0.0,0.0,100,0.00,,---,0.40,VWS V14.01,2013-06-15 02:52:00,
2013-06-14 22:57:00,76.0,76.0,29.89,SE,142,0.0,0.0,100,0.00,,---,0.40,VWS V14.01,2013-06-15 02:57:00,
2013-06-14 23:02:00,76.0,76.0,29.89,SE,142,0.0,0.0,100,0.00,,---,0.40,VWS V14.01,2013-06-15 03:02:00,
2013-06-14 23:07:00,75.8,75.8,29.89,SE,142,0.0,0.0,100,0.00,,---,0.40,VWS V14.01,2013-06-15 03:07:00,
2013-06-14 23:12:00,75.8,75.8,29.89,SE,142,0.0,0.0,100,0.00,,---,0.40,VWS V14.01,2013-06-15 03:12:00,
2013-06-14 23:17:00,75.8,75.8,29.89,SE,142,0.0,0.0,100,0.00,,---,0.40,VWS V14.01,2013-06-15 03:17:00,
2013-06-14 23:22:00,75.6,75.6,29.89,SE,142,0.0,0.0,100,0.00,,---,0.40,VWS V14.01,2013-06-15 03:22:00,
2013-06-14 23:27:00,75.6,75.6,29.89,SE,142,0.0,0.0,100,0.00,,---,0.40,VWS V14.01,2013-06-15 03:27:00,
2013-06-14 23:32:00,75.6,75.6,29.90,SE,142,0.0,0.0,100,0.00,,---,0.40,VWS V14.01,2013-06-15 03:32:00,
2013-06-14 23:37:00,75.4,75.4,29.90,SE,142,0.0,0.0,100,0.00,,---,0.40,VWS V14.01,2013-06-15 03:37:00,
2013-06-14 23:42:00,75.4,75.4,29.90,SE,142,0.0,0.0,100,0.00,,---,0.40,VWS V14.01,2013-06-15 03:42:00,
2013-06-14 23:47:00,75.4,75.4,29.89,SE,142,0.0,0.0,100,0.00,,---,0.40,VWS V14.01,2013-06-15 03:47:00,
2013-06-14 23:53:00,75.4,75.4,29.89,SE,142,0.0,0.0,100,0.00,,---,0.40,VWS V14.01,2013-06-15 03:53:00,
2013-06-14 23:58:00,75.3,75.3,29.89,SE,142,0.0,0.0,100,0.00,,---,0.40,VWS V14.01,2013-06-15 03:58:00,